YAHSAT 1B

Last updated on Thu Nov 21 2024 00:02:42 GMT+0000 (Coordinated Universal Time)

1 38245U 12016A 24324.58382604 .00000128 00000+0 00000+0 0 9992 2 38245 0.0812 94.2081 0002644 173.8504 48.8270 1.00269454 39836
UTC large
Height (km)
Speed (km/s)
/
Latitude / Longitude
Inclination (degrees)
Orbital Period (minutes)
Azimuth
Elevation
Range (km)
Doppler Factor

Next 0 passes for location: London (51.5072 / 0.1276)

Sorry there are no passes over London.